Temperature
15 15 14 14 14 14 14 14 14 14 14 14 14 14 14 14 14 14 14 14 14 14 14 14 14 14 14 14 14 15 14 14 14 14 14 14 14 15 15 15 15 15 15
15 14 14 14 14 14 14 14 14 14 14 14 14 14 14 14 14 14 14 14 14 14 14 14 14 14 14 14 14 14 14 14 14 14 14 14 14 14 14 14 14 14 14
15 14 14 14 14 14 14 14 14 14 14 14 14 14 14 14 14 14 14 13 13 13 13 13 14 14 14 14 14 14 14 14 14 14 14 14 14 14 14 14 14 14 14
15 14 14 14 14 14 14 14 14 14 14 14 14 14 14 13 13 13 13 13 13 13 13 13 13 13 13 14 14 14 14 14 14 14 14 14 13 13 13 13 13 13 13
14 14 14 14 14 14 14 13 13 13 13 13 14 13 13 13 13 13 13 13 13 13 13 13 13 13 13 13 13 13 14 14 13 13 13 13 13 13 13 13 13 13 13
14 14 13 13 13 13 13 13 13 13 13 13 13 13 13 13 13 13 13 13 13 13 13 13 12 12 13 13 13 13 13 13 13 13 13 13 13 13 13 13 13 13 13
13 13 13 13 13 13 13 13 13 13 13 13 13 13 13 13 13 13 12 12 12 12 12 12 12 12 12 13 13 13 13 13 13 13 13 13 13 12 13 13 12 12 12
13 13 13 13 13 13 13 13 13 13 13 13 13 13 13 13 13 12 12 12 12 12 12 12 12 12 12 12 12 12 12 13 12 12 12 12 12 12 12 12 12 12 12
13 12 12 12 12 12 12 12 12 12 12 12 13 13 12 12 12 12 12 12 12 12 12 12 12 12 12 12 12 12 12 12 12 12 12 12 12 12 12 12 12 12 12
12 12 12 12 12 12 12 12 12 12 12 12 12 12 12 12 12 12 12 12 11 12 11 11 11 11 11 12 12 12 11 11 11 11 11 11 11 11 11 11 11 11 11
12 12 12 11 11 12 12 12 12 12 12 12 12 12 12 12 12 12 12 11 11 11 11 11 11 11 11 11 11 11 11 11 11 11 11 11 11 11 11 11 11 11 11
11 11 11 11 11 11 11 11 11 11 11 11 12 11 11 11 11 11 11 11 11 11 11 11 11 11 11 11 11 11 11 11 10 10 10 10 10 10 10 10 10 10 11
10 11 11 11 11 11 11 11 11 11 11 11 11 11 11 11 11 11 11 11 11 11 11 11 11 10 10 10 10 10 10 10 10 10 10 10 10 10 10 10 10 10 10
10 10 10 10 10 10 10 10 11 11 11 11 11 11 11 11 11 10 10 10 10 10 10 10 10 10 10 10 10 10 10 10 10 9 9 9 9 9 9 9 9 9 9
9 9 9 10 10 10 10 10 10 10 10 10 10 10 10 10 10 10 10 10 10 10 10 9 9 9 9 9 9 9 9 9 9 9 9 9 9 9 9 9 9 9 9
9 9 9 9 9 9 9 10 10 10 10 10 10 10 10 10 10 10 9 9 9 9 9 9 9 9 9 9 9 9 9 9 9 9 8 8 8 8 8 8 8 8 8
9 9 9 9 9 9 9 9 9 9 9 9 9 9 9 9 9 9 9 9 9 9 9 9 8 8 8 8 8 8 8 8 8 8 8 8 8 8 8 8 8 8 8
8 8 8 8 8 8 8 8 8 9 9 9 9 9 9 9 9 9 9 8 8 8 8 8 8 8 8 8 8 8 8 8 8 8 8 7 7 7 7 7 7 7 7
8 8 8 8 8 8 8 8 8 8 8 8 8 8 8 8 8 8 8 8 8 8 8 8 7 7 7 7 7 7 7 7 7 7 7 7 7 7 7 7 7 7 7
7 7 7 7 7 7 7 7 7 7 7 7 7 7 7 7 7 7 7 7 7 7 7 7 7 7 7 7 7 6 6 6 6 6 6 6 6 6 6 6 6 6 6
7 7 7 7 7 7 7 7 7 7 7 7 7 7 7 7 7 7 7 7 7 7 7 7 6 6 6 6 6 6 6 6 6 6 6 6 6 6 6 6 6 6 6
6 6 6 6 6 6 6 6 6 6 6 6 6 6 6 6 6 6 6 6 6 6 6 6 6 6 6 5 5 5 5 5 5 5 5 5 5 5 5 5 5 5 5
5 5 5 5 5 6 6 6 6 6 6 6 6 6 6 6 6 6 6 6 6 6 6 6 6 6 5 5 5 5 5 5 5 5 5 5 5 5 5 5 5 5 5
5 5 4 4 5 5 5 5 5 5 5 5 6 5 5 5 5 5 5 5 5 5 5 5 5 5 5 5 5 5 5 5 4 4 4 5 5 5 4 4 4 4 4
4 4 4 4 4 4 4 4 5 5 5 5 5 5 5 5 5 5 5 5 5 4 4 4 4 4 4 4 4 4 4 4 4 4 4 4 4 4 4 4 4 4 4
3 3 3 3 3 4 4 4 4 4 4 4 4 4 4 4 4 4 4 4 4 4 4 4 4 4 4 4 4 4 4 4 4 4 4 4 4 4 3 3 3 3 3
Wind_Speed
4 6 10 13 14 14 14 14 14 14 14 15 15 15 15 15 15 15 16 16 16 16 17 18 18 19 20 20 21 21 20 20 20 20 20 20 20 20 20 20 19 19 21
5 9 12 14 15 15 15 14 14 14 14 14 15 15 15 15 15 15 16 16 16 17 17 18 18 18 20 20 20 20 20 20 20 20 19 19 19 19 20 20 19 18 20
6 9 13 15 15 15 15 15 14 14 14 14 14 14 14 14 15 15 15 15 16 16 17 17 18 18 19 19 20 19 19 19 19 19 17 17 17 19 19 20 20 19 19
6 9 12 16 16 16 15 15 14 14 14 14 14 14 14 15 15 15 15 15 15 16 16 17 17 18 18 19 19 19 19 19 19 18 16 15 15 18 19 20 20 19 19
6 8 11 15 16 16 16 15 14 14 14 14 14 14 14 15 15 15 15 15 15 15 16 16 17 17 18 18 19 19 19 19 19 18 16 15 14 17 19 19 19 19 19
6 8 11 14 15 15 15 15 14 14 14 14 14 14 14 14 15 15 15 15 15 15 16 16 17 17 17 18 18 19 18 18 18 17 16 14 14 16 18 18 18 19 18
5 7 10 13 14 14 14 14 14 14 14 14 13 13 14 14 14 14 14 14 14 15 16 16 16 17 17 17 18 18 17 17 17 16 15 14 14 16 17 17 17 17 18
6 7 9 12 13 13 13 13 13 13 13 13 13 13 13 14 14 14 13 14 14 15 15 15 15 16 17 17 17 17 17 16 15 14 14 13 14 15 16 16 16 16 17
7 7 8 10 11 12 13 13 12 12 12 12 12 13 13 13 13 13 13 13 14 14 14 15 15 16 16 16 16 16 17 17 15 13 12 12 14 15 15 15 15 15 15
6 7 7 8 9 9 11 12 12 12 12 12 12 13 13 13 13 13 13 13 14 14 14 14 15 16 15 15 15 15 16 15 14 13 11 12 14 14 14 14 14 14 14
5 5 6 7 8 9 9 10 11 11 12 12 12 12 12 12 12 12 12 13 13 14 14 15 15 15 15 15 14 14 14 13 12 11 11 12 13 13 14 14 14 13 13
4 4 4 6 7 8 8 8 9 9 10 10 11 11 11 11 11 11 13 13 13 14 14 14 14 14 13 12 12 13 12 12 11 10 10 11 12 12 13 13 13 13 13
5 4 3 5 6 7 7 7 7 8 8 10 11 11 11 11 11 11 10 11 12 12 12 13 13 12 11 11 11 11 11 11 10 10 10 11 11 12 12 12 11 12 12
5 4 3 5 6 6 6 6 6 7 7 7 9 10 10 8 8 8 8 9 10 10 10 11 10 11 12 11 11 11 11 10 10 9 10 11 11 11 11 10 11 11 12
4 4 3 4 5 5 6 5 5 5 6 7 8 9 10 8 7 7 7 8 9 10 10 9 9 10 10 10 10 10 10 10 10 10 9 11 11 11 10 10 10 10 10
3 3 3 4 5 5 4 4 4 5 6 7 7 8 10 9 8 7 7 7 8 9 9 9 9 9 8 9 9 10 9 9 10 10 10 10 10 11 10 10 9 9 9
3 2 2 3 4 4 4 5 5 5 6 6 6 8 8 9 9 8 7 6 7 9 10 10 9 9 7 7 7 8 9 9 9 10 10 10 10 10 10 10 9 8 8
3 2 2 2 3 3 3 4 4 5 6 5 6 7 8 9 10 8 6 6 8 9 9 7 6 5 5 5 4 5 7 8 8 9 10 10 10 10 10 10 10 9 8
3 3 2 2 2 2 3 3 4 5 5 5 6 6 7 8 9 9 7 7 9 8 7 6 4 4 5 5 4 4 5 6 6 7 8 9 9 9 9 10 10 10 9
2 3 3 2 2 2 2 3 3 3 3 4 5 6 6 7 8 8 7 8 8 6 5 5 5 4 4 5 5 5 4 4 5 6 6 7 8 8 9 9 9 9 8
2 2 3 2 2 2 2 2 3 3 2 2 3 6 7 7 7 7 6 7 7 6 5 6 5 5 3 3 4 3 3 3 3 4 4 5 6 6 8 8 8 8 7
1 1 2 3 3 2 2 2 2 2 2 2 3 4 6 7 7 7 7 6 6 5 6 6 5 4 2 2 3 3 1 1 2 2 3 3 3 5 6 6 6 6 6
1 1 2 1 2 2 2 1 1 2 2 1 2 2 4 6 7 7 8 7 6 6 6 6 6 5 4 2 1 3 4 3 1 1 1 1 2 2 3 4 4 4 4
2 1 1 1 1 2 2 3 3 3 3 3 2 2 3 5 6 7 7 7 7 6 7 7 5 4 6 4 1 0 1 3 3 1 1 1 1 0 1 1 2 2 3
1 0 0 1 1 1 2 3 3 3 2 1 2 3 2 3 5 6 7 7 6 6 6 7 6 5 5 5 3 2 2 2 2 3 2 1 1 1 0 0 0 1 1
1 1 1 0 0 1 2 2 3 4 3 2 2 3 2 2 4 6 7 7 7 6 7 7 7 6 5 4 3 3 3 4 3 3 3 2 2 1 1 1 1 1 2
Wind_Direction
195 191 174 154 144 137 132 127 123 119 116 113 110 106 103 100 97 94 93 92 91 89 88 87 85 83 82 81 79 78 76 76 76 76 76 77 79 80 80 79 78 77 80
166 177 169 153 146 141 134 130 124 121 118 115 112 109 106 103 99 96 93 92 92 91 90 88 86 84 84 82 80 78 77 77 75 73 72 74 76 79 79 79 80 81 81
144 161 160 151 147 142 137 132 127 124 121 117 114 111 108 104 101 97 94 92 91 91 90 89 88 86 85 84 82 80 78 76 74 70 69 71 76 79 79 79 79 80 80
136 146 152 150 147 144 139 134 130 127 123 119 116 112 109 105 101 98 96 93 91 91 91 90 90 88 87 86 85 82 79 77 72 68 66 68 75 80 79 79 79 79 80
122 130 146 150 147 145 141 137 133 129 126 121 118 115 111 107 104 100 98 95 93 93 93 92 92 90 89 87 86 84 81 76 70 66 64 66 73 79 79 78 77 77 78
113 124 140 144 145 144 141 138 135 130 127 124 120 117 113 110 107 104 102 99 97 96 95 94 94 92 90 88 87 85 81 76 69 64 62 64 72 79 79 78 77 76 77
111 117 133 139 139 139 140 138 135 132 129 126 123 119 115 113 110 106 104 102 101 98 96 96 95 95 93 91 88 85 80 75 69 64 60 63 72 79 79 78 77 77 76
106 107 123 129 133 136 135 136 135 133 130 127 125 122 118 116 113 110 108 106 104 102 99 98 97 96 94 92 88 83 79 76 72 65 61 64 73 78 79 79 78 77 76
96 97 103 117 123 130 133 132 130 129 130 128 125 122 119 117 116 114 111 109 107 105 102 100 98 96 94 93 89 84 79 76 71 66 64 66 73 76 78 79 78 76 76
87 89 94 103 112 114 124 128 127 126 124 123 123 119 116 114 114 114 112 110 108 106 104 102 100 96 92 90 87 83 79 74 70 67 66 72 76 77 78 78 78 77 77
94 86 87 91 99 106 109 121 119 121 120 118 117 115 111 107 106 108 109 110 109 108 107 104 100 95 88 84 82 79 76 73 71 67 70 77 78 79 79 78 78 79 78
128 107 94 97 97 99 103 104 107 109 110 112 113 111 108 107 108 108 107 107 107 106 104 101 96 90 84 81 77 75 74 72 69 65 71 78 80 82 82 80 80 80 80
137 116 109 110 107 105 106 104 108 109 107 110 113 113 110 104 104 102 100 98 97 97 95 95 88 84 83 82 79 76 74 72 67 65 68 75 80 83 84 83 83 83 82
129 122 109 109 106 104 108 112 113 116 116 116 119 120 114 106 102 102 99 98 98 99 98 94 92 88 84 83 82 76 71 69 66 64 64 70 78 83 86 87 87 87 85
135 137 130 111 109 109 111 114 114 120 128 129 127 125 123 118 115 109 105 102 103 107 107 102 98 92 85 81 79 77 70 67 67 67 63 66 72 77 80 83 85 87 87
144 149 139 127 121 125 123 122 128 126 130 130 129 131 132 129 125 118 113 110 110 113 113 110 107 99 90 85 77 73 70 67 64 65 65 64 65 70 73 76 79 84 86
152 138 132 133 120 125 129 129 133 137 132 135 134 136 135 133 131 127 123 120 120 121 116 110 104 98 91 84 74 69 69 66 63 62 63 63 64 66 70 72 72 76 80
136 137 139 116 118 121 126 129 136 137 137 137 140 140 139 139 138 131 128 127 126 125 122 117 113 106 97 91 79 63 62 63 62 64 64 62 63 63 65 66 64 65 74
154 147 136 113 117 124 118 123 130 135 136 139 143 144 147 146 146 139 136 136 132 126 125 126 115 118 116 106 91 69 56 56 54 61 61 59 62 64 65 65 63 60 64
139 140 132 128 115 105 112 115 115 120 134 142 150 154 154 152 152 145 142 142 137 130 128 128 123 109 122 119 98 72 51 48 53 55 57 60 61 63 68 68 64 61 58
105 123 140 139 135 126 143 162 163 180 183 169 161 163 161 157 154 151 149 150 147 147 147 142 132 121 115 124 107 80 43 44 49 44 53 61 56 59 67 68 66 64 61
124 152 163 174 171 172 181 198 188 172 181 177 157 161 166 164 162 163 158 160 157 148 146 146 141 137 140 148 135 129 94 3 3 11 31 52 46 56 59 62 68 70 68
166 201 206 206 195 189 168 133 124 125 113 146 178 178 179 173 170 168 166 163 165 161 166 165 161 152 163 181 151 149 157 201 259 344 360 19 29 49 54 59 68 78 77
222 215 217 205 192 191 162 153 163 176 188 199 200 192 186 177 173 171 168 167 168 169 170 174 168 161 164 175 170 81 135 144 157 197 320 336 335 353 41 48 65 81 96
231 179 204 190 206 193 181 178 180 185 197 190 164 183 192 186 178 178 177 173 172 174 175 173 172 174 177 181 179 166 139 113 129 159 207 267 302 284 287 252 213 115 134
31 37 39 84 309 232 197 190 195 194 187 182 185 196 201 214 189 186 183 181 180 179 180 180 179 183 188 187 186 183 179 170 174 168 183 201 236 273 294 256 231 212 188
Height
1516 1519 1522 1524 1526 1528 1529 1531 1532 1533 1534 1535 1536 1537 1538 1538 1539 1540 1540 1541 1541 1542 1542 1543 1543 1543 1544 1544 1545 1546 1546 1547 1548 1548 1549 1550 1550 1551 1551 1552 1552 1552 1553
1515 1519 1522 1524 1526 1528 1530 1531 1533 1534 1535 1536 1537 1538 1539 1540 1540 1541 1542 1542 1543 1543 1544 1545 1545 1545 1545 1546 1547 1548 1548 1549 1550 1550 1551 1552 1553 1553 1554 1554 1554 1555 1555
1515 1518 1521 1524 1526 1528 1530 1532 1533 1534 1536 1537 1538 1539 1540 1541 1541 1542 1543 1544 1544 1545 1545 1546 1546 1547 1547 1548 1548 1549 1550 1551 1552 1552 1553 1554 1555 1555 1556 1556 1556 1557 1557
1515 1518 1521 1524 1526 1528 1530 1532 1533 1535 1536 1537 1538 1540 1541 1542 1542 1543 1544 1545 1545 1546 1547 1547 1548 1548 1549 1549 1550 1551 1552 1553 1554 1554 1555 1556 1556 1557 1558 1558 1558 1559 1559
1515 1518 1521 1524 1526 1528 1530 1532 1534 1535 1537 1538 1539 1540 1541 1542 1543 1544 1545 1546 1547 1547 1548 1549 1549 1550 1551 1551 1552 1552 1553 1554 1555 1556 1557 1557 1558 1559 1560 1560 1560 1561 1561
1515 1518 1521 1524 1526 1528 1530 1532 1534 1535 1537 1538 1539 1541 1542 1543 1544 1545 1546 1547 1548 1548 1549 1550 1550 1551 1552 1553 1553 1554 1555 1556 1557 1558 1558 1559 1560 1561 1561 1562 1562 1563 1563
1516 1518 1521 1524 1526 1528 1530 1532 1534 1535 1537 1538 1540 1541 1542 1543 1544 1545 1546 1547 1548 1549 1550 1551 1551 1552 1553 1554 1555 1555 1556 1557 1558 1559 1560 1561 1562 1562 1562 1563 1564 1564 1565
1516 1518 1521 1523 1526 1528 1530 1532 1534 1535 1537 1538 1540 1541 1542 1544 1545 1546 1547 1548 1549 1550 1551 1551 1552 1553 1554 1555 1556 1556 1557 1558 1559 1560 1561 1562 1563 1563 1563 1564 1565 1565 1566
1516 1518 1521 1523 1525 1528 1530 1532 1534 1535 1537 1538 1540 1541 1542 1543 1545 1546 1547 1548 1549 1550 1551 1552 1553 1554 1555 1556 1557 1557 1558 1559 1560 1561 1562 1562 1563 1564 1564 1564 1565 1566 1566
1516 1518 1520 1522 1525 1527 1529 1531 1533 1535 1536 1538 1539 1541 1542 1543 1545 1546 1547 1548 1549 1550 1551 1552 1553 1554 1555 1556 1557 1558 1559 1560 1561 1561 1562 1563 1564 1564 1565 1565 1566 1566 1567
1515 1517 1519 1521 1523 1526 1528 1530 1532 1534 1535 1537 1539 1540 1541 1543 1544 1546 1547 1548 1549 1551 1552 1553 1553 1554 1556 1557 1558 1559 1560 1560 1561 1562 1563 1564 1564 1565 1565 1566 1566 1567 1567
1512 1515 1517 1520 1522 1524 1526 1528 1531 1533 1534 1536 1538 1539 1541 1542 1543 1545 1546 1548 1549 1550 1552 1553 1553 1555 1556 1557 1558 1559 1560 1561 1561 1562 1563 1564 1564 1565 1566 1566 1567 1567 1568
1511 1513 1516 1518 1520 1522 1524 1526 1529 1531 1533 1535 1536 1538 1540 1541 1543 1544 1546 1547 1549 1550 1551 1552 1553 1555 1556 1557 1558 1559 1560 1561 1562 1562 1563 1564 1565 1565 1566 1566 1567 1567 1568
1510 1512 1514 1516 1518 1521 1523 1525 1527 1529 1531 1533 1535 1537 1538 1540 1541 1543 1544 1546 1548 1549 1550 1552 1553 1554 1556 1557 1558 1559 1560 1561 1562 1562 1563 1564 1565 1565 1566 1566 1567 1567 1568
1508 1510 1512 1514 1516 1518 1521 1523 1525 1527 1530 1532 1533 1535 1537 1538 1540 1541 1543 1545 1546 1548 1550 1551 1552 1554 1555 1556 1557 1559 1559 1560 1561 1562 1563 1564 1565 1565 1566 1567 1567 1568 1568
1507 1509 1510 1512 1515 1517 1519 1521 1523 1525 1528 1530 1532 1533 1535 1537 1539 1540 1542 1543 1545 1547 1549 1550 1551 1553 1554 1556 1557 1558 1559 1560 1561 1562 1563 1564 1565 1565 1566 1567 1567 1568 1568
1504 1506 1508 1510 1512 1515 1517 1518 1521 1523 1525 1528 1529 1532 1534 1535 1537 1538 1540 1542 1544 1545 1547 1549 1550 1552 1553 1555 1556 1557 1558 1559 1560 1561 1562 1563 1564 1565 1566 1566 1567 1567 1568
1502 1504 1506 1508 1510 1512 1514 1516 1518 1520 1523 1525 1527 1529 1531 1533 1535 1536 1538 1540 1542 1544 1545 1547 1549 1550 1552 1553 1554 1556 1557 1558 1559 1560 1561 1562 1563 1564 1565 1566 1566 1567 1568
1500 1501 1503 1505 1507 1509 1511 1513 1515 1517 1520 1522 1524 1526 1528 1530 1532 1534 1536 1538 1539 1541 1543 1545 1547 1549 1550 1552 1553 1554 1556 1557 1558 1559 1560 1561 1562 1563 1564 1565 1566 1566 1567
1497 1499 1501 1502 1505 1506 1508 1511 1512 1514 1516 1519 1520 1523 1525 1527 1529 1531 1533 1535 1537 1539 1541 1543 1545 1547 1548 1550 1551 1553 1554 1556 1557 1558 1558 1560 1561 1561 1562 1563 1564 1565 1565
1494 1496 1497 1499 1501 1502 1504 1506 1508 1510 1512 1514 1516 1519 1522 1524 1526 1528 1530 1531 1533 1536 1538 1540 1542 1544 1546 1548 1549 1551 1553 1554 1555 1556 1557 1558 1559 1560 1561 1562 1562 1563 1564
1490 1492 1494 1495 1497 1499 1500 1502 1504 1506 1508 1511 1514 1516 1518 1521 1523 1525 1526 1528 1530 1532 1534 1536 1538 1540 1542 1545 1546 1548 1550 1553 1552 1554 1555 1556 1557 1558 1559 1560 1560 1561 1562
1487 1488 1490 1491 1493 1495 1497 1499 1500 1502 1504 1507 1509 1511 1514 1517 1519 1521 1523 1525 1527 1528 1530 1532 1534 1536 1538 1541 1544 1545 1547 1547 1549 1551 1551 1553 1554 1555 1556 1557 1558 1559 1559
1484 1485 1487 1488 1490 1491 1493 1495 1496 1497 1499 1501 1504 1507 1510 1513 1515 1517 1519 1521 1523 1525 1526 1528 1531 1533 1535 1537 1540 1541 1543 1544 1546 1546 1548 1550 1551 1552 1553 1554 1555 1556 1556
1481 1482 1483 1485 1486 1487 1489 1491 1492 1494 1496 1499 1501 1503 1505 1508 1510 1512 1514 1516 1519 1521 1523 1524 1527 1529 1531 1533 1535 1537 1539 1540 1541 1543 1544 1546 1547 1548 1549 1551 1552 1552 1553
1478 1479 1480 1481 1483 1484 1485 1487 1489 1490 1492 1494 1496 1498 1501 1503 1505 1508 1510 1512 1514 1516 1518 1520 1522 1525 1527 1529 1531 1533 1534 1536 1537 1539 1540 1541 1542 1544 1545 1547 1548 1549 1550